• In France
  • List of Countries
  • For 7 days
  • Water Temperature
  • Satellite Maps
  • Weather Map
  • Weather Widgets
  • user-avatar
    Login

    Hourly Weather Grishkovo

    Today, 20 September, Thursday

    Time Temperature Precipitation Wind Pressure Humidity
    00:00 +17°C° 0 mm 2 mps 747 mmHg 96%
    01:00 +16°C° 0 mm 2 mps 747 mmHg 96%
    02:00 +16°C° 0 mm 2 mps 747 mmHg 97%
    03:00 +15°C° 0 mm 2 mps 747 mmHg 97%
    04:00 +15°C° 0 mm 2 mps 748 mmHg 98%
    05:00 +14°C° 0 mm 2 mps 748 mmHg 98%
    06:00 +15°C° 0 mm 2 mps 748 mmHg 95%
    07:00 +15°C° 0 mm 2 mps 748 mmHg 91%
    08:00 +16°C° 0 mm 2 mps 749 mmHg 88%
    09:00 +18°C° 0 mm 2 mps 749 mmHg 79%
    10:00 +20°C° 0 mm 2 mps 749 mmHg 70%
    11:00 +21°C° 0 mm 3 mps 749 mmHg 60%
    12:00 +22°C° 0 mm 3 mps 749 mmHg 57%
    13:00 +24°C° 0 mm 3 mps 749 mmHg 54%
    14:00 +25°C° 0 mm 3 mps 749 mmHg 51%
    15:00 +24°C° 0 mm 2 mps 749 mmHg 56%
    16:00 +23°C° 0 mm 2 mps 749 mmHg 62%
    17:00 +21°C° 0 mm 2 mps 749 mmHg 67%
    18:00 +20°C° 0 mm 2 mps 749 mmHg 72%
    19:00 +18°C° 0 mm 2 mps 749 mmHg 77%
    20:00 +17°C° 0 mm 2 mps 749 mmHg 82%
    21:00 +16°C° 0 mm 2 mps 749 mmHg 83%
    22:00 +16°C° 0 mm 2 mps 749 mmHg 85%
    23:00 +16°C° 0 mm 2 mps 749 mmHg 87%

    Tomorrow, 21 September, Friday

    Time Temperature Precipitation Wind Pressure Humidity
    00:00 +16°C° 0 mm 2 mps 749 mmHg 88%
    01:00 +16°C° 0 mm 2 mps 749 mmHg 90%
    02:00 +15°C° 0 mm 2 mps 749 mmHg 92%
    03:00 +15°C° 0 mm 2 mps 749 mmHg 93%
    04:00 +15°C° 0 mm 2 mps 749 mmHg 95%
    05:00 +15°C° 0 mm 2 mps 749 mmHg 96%
    06:00 +16°C° 0 mm 2 mps 749 mmHg 92%
    07:00 +18°C° 0 mm 2 mps 749 mmHg 87%
    08:00 +19°C° 0 mm 2 mps 750 mmHg 83%
    09:00 +21°C° 0 mm 3 mps 750 mmHg 76%
    10:00 +22°C° 0 mm 3 mps 750 mmHg 70%
    11:00 +25°C° 0 mm 3 mps 750 mmHg 63%
    12:00 +26°C° 0.1 mm 4 mps 749 mmHg 60%
    13:00 +26°C° 0.1 mm 4 mps 749 mmHg 57%
    14:00 +27°C° 0.1 mm 4 mps 749 mmHg 54%
    15:00 +26°C° 0 mm 3 mps 748 mmHg 59%
    16:00 +25°C° 0 mm 3 mps 748 mmHg 65%
    17:00 +24°C° 0 mm 3 mps 748 mmHg 70%
    18:00 +22°C° 0 mm 3 mps 748 mmHg 74%
    19:00 +21°C° 0 mm 3 mps 747 mmHg 78%
    20:00 +19°C° 0 mm 3 mps 747 mmHg 81%
    21:00 +19°C° 0 mm 3 mps 747 mmHg 79%
    22:00 +19°C° 0 mm 3 mps 746 mmHg 77%
    23:00 +18°C° 0 mm 4 mps 746 mmHg 75%

    Day after tomorrow, 22 September, Saturday

    Time Temperature Precipitation Wind Pressure Humidity
    00:00 +18°C° 0 mm 4 mps 746 mmHg 74%
    01:00 +18°C° 0 mm 4 mps 745 mmHg 72%
    02:00 +18°C° 0 mm 4 mps 745 mmHg 70%
    03:00 +17°C° 0 mm 5 mps 744 mmHg 71%
    04:00 +17°C° 0 mm 5 mps 743 mmHg 72%
    05:00 +17°C° 0 mm 5 mps 743 mmHg 73%
    06:00 +17°C° 0 mm 5 mps 743 mmHg 72%
    07:00 +17°C° 0 mm 5 mps 743 mmHg 71%
    08:00 +19°C° 0 mm 5 mps 743 mmHg 71%
    09:00 +17°C° 0.6 mm 5 mps 743 mmHg 75%
    10:00 +17°C° 0.6 mm 4 mps 743 mmHg 80%
    11:00 +15°C° 0.6 mm 4 mps 743 mmHg 84%
    12:00 +14°C° 0.7 mm 3 mps 743 mmHg 85%
    13:00 +13°C° 0.7 mm 3 mps 744 mmHg 86%
    14:00 +14°C° 0.7 mm 2 mps 744 mmHg 87%
    15:00 +13°C° 0.1 mm 3 mps 744 mmHg 86%
    16:00 +12°C° 0.1 mm 3 mps 744 mmHg 85%
    17:00 +12°C° 0.1 mm 3 mps 744 mmHg 84%
    18:00 +12°C° 0 mm 3 mps 744 mmHg 83%
    19:00 +12°C° 0 mm 3 mps 744 mmHg 81%
    20:00 +11°C° 0 mm 3 mps 744 mmHg 80%
    21:00 +11°C° 0.1 mm 3 mps 744 mmHg 81%
    22:00 +10°C° 0.1 mm 3 mps 744 mmHg 81%
    23:00 +10°C° 0.1 mm 3 mps 744 mmHg 82%

    23 September, Sunday

    Time Temperature Precipitation Wind Pressure Humidity
    00:00 +9°C° 0 mm 2 mps 744 mmHg 86%
    01:00 +9°C° 0 mm 2 mps 744 mmHg 89%
    02:00 +8°C° 0 mm 2 mps 744 mmHg 93%
    03:00 +7°C° 0 mm 2 mps 744 mmHg 94%
    04:00 +7°C° 0 mm 2 mps 743 mmHg 95%
    05:00 +7°C° 0 mm 2 mps 743 mmHg 96%
    06:00 +8°C° 0 mm 3 mps 743 mmHg 91%
    07:00 +9°C° 0 mm 3 mps 743 mmHg 86%
    08:00 +10°C° 0 mm 4 mps 742 mmHg 81%
    09:00 +11°C° 0 mm 4 mps 742 mmHg 74%
    10:00 +12°C° 0 mm 4 mps 742 mmHg 68%
    11:00 +14°C° 0 mm 5 mps 742 mmHg 61%
    12:00 +14°C° 0.2 mm 5 mps 742 mmHg 62%
    13:00 +14°C° 0.2 mm 5 mps 742 mmHg 62%
    14:00 +14°C° 0.2 mm 6 mps 742 mmHg 62%
    15:00 +13°C° 0.2 mm 5 mps 742 mmHg 66%
    16:00 +12°C° 0.2 mm 4 mps 742 mmHg 70%
    17:00 +11°C° 0.2 mm 4 mps 742 mmHg 74%
    18:00 +10°C° 0.1 mm 4 mps 742 mmHg 78%
    19:00 +9°C° 0.1 mm 3 mps 742 mmHg 82%
    20:00 +9°C° 0.1 mm 3 mps 742 mmHg 86%
    21:00 +8°C° 0 mm 3 mps 742 mmHg 87%
    22:00 +8°C° 0 mm 3 mps 742 mmHg 88%
    23:00 +8°C° 0 mm 3 mps 742 mmHg 89%

    24 September, Monday

    Time Temperature Precipitation Wind Pressure Humidity
    00:00 +7°C° 0 mm 3 mps 742 mmHg 91%
    01:00 +7°C° 0 mm 2 mps 742 mmHg 94%
    02:00 +6°C° 0 mm 2 mps 742 mmHg 96%
    03:00 +6°C° 0 mm 2 mps 742 mmHg 96%
    04:00 +6°C° 0 mm 2 mps 742 mmHg 97%
    05:00 +5°C° 0 mm 2 mps 741 mmHg 97%
    06:00 +6°C° 0 mm 2 mps 741 mmHg 93%
    07:00 +7°C° 0 mm 2 mps 741 mmHg 89%
    08:00 +8°C° 0 mm 2 mps 740 mmHg 84%
    09:00 +9°C° 0 mm 3 mps 740 mmHg 79%
    10:00 +10°C° 0 mm 4 mps 739 mmHg 73%
    11:00 +11°C° 0 mm 4 mps 739 mmHg 68%
    12:00 +9°C° 1 mm 5 mps 738 mmHg 74%
    13:00 +8°C° 1 mm 5 mps 736 mmHg 81%
    14:00 +7°C° 1 mm 5 mps 735 mmHg 88%
    15:00 +7°C° 3.4 mm 5 mps 734 mmHg 90%
    16:00 +7°C° 3.4 mm 5 mps 733 mmHg 92%
    17:00 +7°C° 3.4 mm 5 mps 732 mmHg 94%
    18:00 +7°C° 2 mm 5 mps 730 mmHg 94%
    19:00 +7°C° 2 mm 5 mps 729 mmHg 95%
    20:00 +8°C° 2 mm 4 mps 728 mmHg 95%
    21:00 +8°C° 1 mm 4 mps 726 mmHg 95%
    22:00 +8°C° 1 mm 4 mps 725 mmHg 95%
    23:00 +10°C° 1 mm 4 mps 724 mmHg 96%

    25 September, Tuesday

    Time Temperature Precipitation Wind Pressure Humidity
    00:00 +10°C° 1.1 mm 4 mps 723 mmHg 95%
    01:00 +10°C° 1.1 mm 4 mps 723 mmHg 95%
    02:00 +10°C° 1.1 mm 4 mps 722 mmHg 95%
    03:00 +10°C° 0.8 mm 4 mps 722 mmHg 95%
    04:00 +8°C° 0.8 mm 4 mps 723 mmHg 95%
    05:00 +8°C° 0.8 mm 4 mps 723 mmHg 95%
    06:00 +7°C° 1.1 mm 4 mps 723 mmHg 94%
    07:00 +7°C° 1.1 mm 5 mps 724 mmHg 93%
    08:00 +5°C° 1.1 mm 6 mps 724 mmHg 92%
    09:00 +5°C° 0.4 mm 6 mps 725 mmHg 91%
    10:00 +5°C° 0.4 mm 6 mps 726 mmHg 90%
    11:00 +5°C° 0.4 mm 7 mps 727 mmHg 88%
    12:00 +5°C° 0.8 mm 7 mps 728 mmHg 88%
    13:00 +5°C° 0.8 mm 7 mps 729 mmHg 89%
    14:00 +5°C° 0.8 mm 7 mps 730 mmHg 89%
    15:00 +5°C° 0.7 mm 7 mps 731 mmHg 88%
    16:00 +5°C° 0.7 mm 8 mps 732 mmHg 88%
    17:00 +5°C° 0.7 mm 8 mps 733 mmHg 87%
    18:00 +4°C° 0.5 mm 8 mps 734 mmHg 86%
    19:00 +4°C° 0.5 mm 8 mps 735 mmHg 86%
    20:00 +3°C° 0.5 mm 7 mps 736 mmHg 85%
    21:00 +3°C° 0.2 mm 7 mps 737 mmHg 85%
    22:00 +3°C° 0.2 mm 7 mps 738 mmHg 84%
    23:00 +3°C° 0.2 mm 6 mps 738 mmHg 83%
    Show more